COSMOS 2251 DEB

Satellite information

Favourite Embed

Satellite Type and Status

DEBRISIN ORBIT

Key statistics

Satellite COSMOS 2251 DEB at a glance.

Uptime

11771

Days in orbit

Revolutions

≈ 14.4

Per day

Orbit

LEO

Low Earth Orbit

Inclination

74.0

Latest

Satellite identification and parameters

Extended collection of information and parameters for COSMOS 2251 DEB.

Object identification

Identified? True

Debris? True

Object name: COSMOS 2251 DEB

International designator: 1993-036HK

Object number (NORAD): 34024

Object ID (CCSDS): 34024

Country: COMMONWEALTH OF INDEPENDENT STATES (CIS)

Current information (Y/N): Y

RCS size: SMALL

Orbital parameters

Period: 100.331 minutes

Inclination: 74.046 deg

SMA: 7152.393 km

Apoapsis: 790.075 km

Periapsis: 758.441 km

RAAN: 133.5364 deg

Eccentricy: 0.00221142

Argument of periapsis: 214.3382 deg

Mean anomaly: 230.43 deg

Mean motion: 14.35243916 rev/day

Mean motion (dot): 0.00000655 rev/day2

B* drag term: 0.00023723346 1/REarth

Two-line elements (TLE)

Creation date: Sept. 7, 2025, 3:09 a.m.

Reference frame: TEME

Reference center: EARTH

Epoch: Sept. 6, 2025, 8:41 p.m. UTC

TLE line 0: 0 COSMOS 2251 DEB

TLE line 1: 1 34024U 93036HK 25249.86216308 .00000655 00000-0 23723-3 0 9996

TLE line 2: 2 34024 74.0460 133.5364 0022114 214.3382 230.4300 14.35243916866341

Live tracking on map

Real-time ground track for satellite COSMOS 2251 DEB.

In-orbit conjunctions

A list of the most updated potential collisions computed for object COSMOS 2251 DEB.

Target Orbit TCA Probability of collision Miss distance Type
COSMOS 990 LEO 2025-05-21 11:44:12 0.0001581046 384.0 (m) PAYLOAD
DELTA 1 DEB SSO 2024-06-06 21:48:53 0.0001519147 220.0 (m) DEBRIS

Associated space launch

Military communications satellite. Destroyed in a collision with Iridium 33.

COSMOS 2251 DEB was lifted into orbit during the mission ‘Kosmos-3M | Strela-2M 51’, on board a Kosmos-3M space rocket.

The launch took place on June 16, 1993, 4:17 a.m. from 132/1 (132L).

For more information about the launch, click the button.

Launch to space Kosmos-3M | Strela-2M 51
Kosmos-3M | Strela-2M 51

Agency: N/A

Status: Launch Successful

Launch date: June 16, 1993, 4:17 a.m. UTC

Rocket: Kosmos-3M

Launch pad: 132/1 (132L)

Location: Plesetsk Cosmodrome, Russian Federation

...

Latest news about this satellite

There are no fresh news available about this satellite. Check back as we update our databases every day.


Newsletter sign-up

Weekly statistics, charts and insights to help you stay on top of the space industry.